"Pseudo-MPEC" for CEQQ2A2

Created 2026 Sep 4 13:35:04 UT using Find_Orb

Click here for an explanation of pseudo-MPECs

 
 Astrometry: 
     CEQQ2A2*1C2026 09 02.16839321 17 18.074-18 46 39.11   ~924o 19.52GVNEOCPG96
     CEQQ2A2 1C2026 09 02.17362021 17 19.986-18 48 07.02   ~924o 19.09GVNEOCPG96
     CEQQ2A2 1C2026 09 02.17883921 17 21.876-18 49 34.21   ~924o 19.54GVNEOCPG96
     CEQQ2A2 1C2026 09 02.18406121 17 23.759-18 50 59.78   ~924o       VNEOCPG96
     CEQQ2A2 1C2026 09 02.20818521 17 32.482-18 57 43.02   ~925K 19.30GVNEOCPG96
     CEQQ2A2 1C2026 09 02.20831621 17 32.532-18 57 44.78   ~925K 19.47GVNEOCPG96
     CEQQ2A2 1C2026 09 02.20844221 17 32.564-18 57 46.91   ~925K 19.46GVNEOCPG96
     CEQQ2A2 1C2026 09 02.20856821 17 32.600-18 57 49.18   ~925K 19.58GVNEOCPG96
     CEQQ2A2 KB2026 09 02.92064821 22 11.51 -22 06 01.9    ~92MZ 19.4 GXNEOCPI93
     CEQQ2A2 KB2026 09 02.92438021 22 12.90 -22 06 58.5    ~92MZ 19.3 GXNEOCPI93
     CEQQ2A2 KB2026 09 02.92840021 22 14.26 -22 08 00.2    ~92MZ 19.3 GXNEOCPI93
     CEQQ2A2 0B2026 09 02.96940921 22 26.358-22 16 32.13   ~939o 19.4 GWNEOCPM21
     CEQQ2A2 0B2026 09 02.98421921 22 31.460-22 20 13.12   ~939o       WNEOCPM21
     CEQQ2A2 KC2026 09 03.14815421 23 39.30 -23 02 28.8    ~9345 19.6 GVNEOCPH21
     CEQQ2A2 KC2026 09 03.15481921 23 41.60 -23 04 06.7    ~9345 19.7 GVNEOCPH21
     CEQQ2A2 KC2026 09 03.15609821 23 42.04 -23 04 25.7    ~9345 19.4 GVNEOCPH21
     CEQQ2A2  C2026 09 03.29225921 24 30.388-23 37 19.34   ~937o 19.2 GWNEOCPH01
     CEQQ2A2  C2026 09 03.29795821 24 32.321-23 38 40.95   ~937o 19.5 GWNEOCPH01
     CEQQ2A2  C2026 09 03.31030021 24 36.521-23 41 37.70   ~937o 19.5 GWNEOCPH01

Station data:
(G96) Mt. Lemmon Survey  (N32.442729 W110.788720)
   US/Arizona.  Observer E. J. Christensen. Measurers T. Beuden, V. F.
   Carvajal, D. Fay, J. B. Fazekas, D. C. Fuls, A. R. Gibbs, A. D. Grauer, H.
   Gröller, J. K. Hogan, R. A. Kowalski, S. M. Larson, G. J. Leonard, D.
   Rankin, R. L. Seaman, F. C. Shelly, K. W. Wierzchoś. 1.5-m reflector + 10K
   CCD.
(H01) Magdalena Ridge Observatory, Socorro  (N33.984833 W107.189333)  US/New
   Mexico.  Observers W. H. Ryan, E. V. Ryan. Measurer W. H. Ryan. 2.4-m
   f/8.9 reflector + CCD.
(H21) Astronomical Research Observatory, Westfield  (N39.483054 W87.968270)
   US/Illinois.  Observer R. Holmes. Measurers S. Foglia, L. Buzzi, T.
   Linder, R. Holmes. 0.40-m f/5.32 astrograph + CCD.
(I93) St Pardon de Conques  (N44.558670 W0.202960)  France.  Observers F.
   Losse, W. D'Anna. Measurer F. Losse. 0.40-m f/3.7 reflector + CCD.
(M21) Schiaparelli Southern Observatory, Hakos  (S23.236549 E16.361440)
   Namibia.  Observers A. Aletti, F. Bellini, L. Buzzi, G. Galli. Measurer L.
   Buzzi. 0.36-m f/8.4 reflector + CCD.

Orbital elements:  CEQQ2A2
   Perihelion 2026 Jun 24.654372 +/- 0.157 TT = 15:42:17.7 (JD 2461216.154372)
Epoch 2026 Sep  3.0 TT = JDT 2461286.5   Earth MOID: 0.0607      AutoNEOCP
M  53.178065246 +/- 0.22            (J2000 ecliptic)
n   0.755954094 +/- 0.00151         Peri.  105.500171 +/- 0.17
a   1.193454226 +/- 0.00159         Node   157.272754 +/- 0.0043
e   0.21276184 +/- 0.000885         Incl.   23.460475 +/- 0.06
P   1.304/476.210d         H 23.95  G  0.15   U  8.4
q 0.939532707 +/- 0.000428    Q 1.447375745 +/- 0.00295
From 19 observations 2026 Sept. 2-3 (27.4 hr); mean residual 0".31
Residuals in arcseconds: 
260902 G96  .11-  .01+    260902 G96  .13-  .14-    260903 H21  .02+  .31+    
260902 G96  .04+  .45-    260902 I93  .49-  .25+    260903 H21  .03+  .12+    
260902 G96  .03-  .41-    260902 I93  .66+  .17+    260903 H01  .01-  .05-    
260902 G96  .16-  1.2+    260902 I93  .00   .68-    260903 H01  .03-  .01+    
260902 G96  .15+  .34-    260902 M21  .00   .08+    260903 H01  .03+  .25-    
260902 G96  .19+  .08+    260902 M21  .03-  .05-    
260902 G96  .00   .04+    260903 H21  .15-  .08+    

Ephemerides (geocentric):
Date (UTC) HH   RA             Dec           delta  r     elong  mag " sig PA
---- --------  ------------   ------------  ------ ------ -----  --- --------
2026 09 04 14  21 32 22.473   -28 20 40.54  .08948 1.0880 151.6 20.1 1.07 175
2026 09 04 15  21 32 37.084   -28 29 03.81  .08972 1.0882 151.5 20.1 1.11 175
2026 09 04 16  21 32 51.661   -28 37 24.21  .08996 1.0883 151.4 20.1 1.14 174
2026 09 04 17  21 33 06.204   -28 45 41.77  .09020 1.0884 151.3 20.1 1.18 174
2026 09 04 18  21 33 20.713   -28 53 56.50  .09044 1.0886 151.2 20.1 1.22 174
2026 09 04 19  21 33 35.189   -29 02 08.41  .09068 1.0887 151.1 20.1 1.26 174
2026 09 04 20  21 33 49.631   -29 10 17.52  .09093 1.0888 151.0 20.1 1.29 173
2026 09 04 21  21 34 04.039   -29 18 23.85  .09117 1.0890 150.9 20.1 1.33 173
2026 09 04 22  21 34 18.415   -29 26 27.41  .09142 1.0891 150.8 20.1 1.37 173
2026 09 04 23  21 34 32.757   -29 34 28.21  .09166 1.0893 150.8 20.2 1.41 173
2026 09 05 00  21 34 47.066   -29 42 26.27  .09191 1.0894 150.7 20.2 1.45 172
2026 09 05 01  21 35 01.341   -29 50 21.60  .09215 1.0895 150.6 20.2 1.50 172
2026 09 05 02  21 35 15.584   -29 58 14.22  .09240 1.0897 150.5 20.2 1.54 172
2026 09 05 03  21 35 29.794   -30 06 04.14  .09265 1.0898 150.4 20.2 1.58 172
2026 09 05 04  21 35 43.971   -30 13 51.38  .09289 1.0900 150.3 20.2 1.62 172
2026 09 05 05  21 35 58.115   -30 21 35.95  .09314 1.0901 150.2 20.2 1.66 171
2026 09 05 06  21 36 12.226   -30 29 17.86  .09339 1.0902 150.1 20.2 1.71 171
2026 09 05 07  21 36 26.305   -30 36 57.14  .09364 1.0904 150.0 20.2 1.75 171
2026 09 05 08  21 36 40.352   -30 44 33.79  .09389 1.0905 149.9 20.2 1.80 171
2026 09 05 09  21 36 54.365   -30 52 07.83  .09414 1.0907 149.8 20.2 1.84 171
2026 09 05 10  21 37 08.347   -30 59 39.28  .09439 1.0908 149.7 20.2 1.88 171
2026 09 05 11  21 37 22.296   -31 07 08.14  .09465 1.0909 149.6 20.3 1.93 170
2026 09 05 12  21 37 36.214   -31 14 34.43  .09490 1.0911 149.5 20.3 1.97 170
2026 09 05 13  21 37 50.099   -31 21 58.18  .09515 1.0912 149.4 20.3 2.02 170
2026 09 05 14  21 38 03.952   -31 29 19.38  .09540 1.0914 149.3 20.3 2.07 170
2026 09 05 15  21 38 17.773   -31 36 38.06  .09566 1.0915 149.2 20.3 2.11 170
2026 09 05 16  21 38 31.562   -31 43 54.23  .09591 1.0916 149.1 20.3 2.16 170
2026 09 05 17  21 38 45.320   -31 51 07.91  .09617 1.0918 149.0 20.3 2.21 169
2026 09 05 18  21 38 59.046   -31 58 19.10  .09642 1.0919 148.9 20.3 2.25 169
2026 09 05 19  21 39 12.740   -32 05 27.83  .09668 1.0921 148.9 20.3 2.30 169
2026 09 05 20  21 39 26.403   -32 12 34.10  .09694 1.0922 148.8 20.3 2.35 169
2026 09 05 21  21 39 40.034   -32 19 37.93  .09720 1.0923 148.7 20.3 2.40 169
2026 09 05 22  21 39 53.635   -32 26 39.34  .09745 1.0925 148.6 20.3 2.45 169
2026 09 05 23  21 40 07.203   -32 33 38.34  .09771 1.0926 148.5 20.4 2.49 169
2026 09 06 00  21 40 20.741   -32 40 34.94  .09797 1.0928 148.4 20.4 2.54 169
2026 09 06 01  21 40 34.248   -32 47 29.16  .09823 1.0929 148.3 20.4 2.59 168
2026 09 06 02  21 40 47.723   -32 54 21.00  .09849 1.0930 148.2 20.4 2.64 168
2026 09 06 03  21 41 01.168   -33 01 10.50  .09875 1.0932 148.1 20.4 2.69 168
2026 09 06 04  21 41 14.582   -33 07 57.65  .09901 1.0933 148.0 20.4 2.74 168
2026 09 06 05  21 41 27.965   -33 14 42.47  .09927 1.0935 147.9 20.4 2.79 168
2026 09 06 06  21 41 41.318   -33 21 24.98  .09954 1.0936 147.8 20.4 2.84 168
2026 09 06 07  21 41 54.640   -33 28 05.18  .09980 1.0937 147.7 20.4 2.89 168
2026 09 06 08  21 42 07.931   -33 34 43.10  .10006 1.0939 147.6 20.4 2.94 168
2026 09 06 09  21 42 21.192   -33 41 18.75  .10033 1.0940 147.6 20.4 2.99 168
2026 09 06 10  21 42 34.423   -33 47 52.14  .10059 1.0942 147.5 20.4 3.04 167
2026 09 06 11  21 42 47.623   -33 54 23.28  .10086 1.0943 147.4 20.5 3.10 167
2026 09 06 12  21 43 00.794   -34 00 52.18  .10112 1.0944 147.3 20.5 3.15 167
2026 09 06 13  21 43 13.934   -34 07 18.87  .10139 1.0946 147.2 20.5 3.20 167